Time,TemperatureF,DewpointF,PressureIn,WindDirection,WindDirectionDegrees,WindSpeedMPH,WindSpeedGustMPH,Humidity,HourlyPrecipIn,Conditions,Clouds,dailyrainin,SoftwareType,DateUTC
2014-02-15 00:00:00,20.2,15.3,30.11,West,265,0.0,2.0,81,0.00,-RA,-RA,0.00,WeatherDisplay:10.37,2014-02-15 06:00:00,
2014-02-15 00:10:00,19.6,14.8,30.11,West,265,0.0,1.0,81,0.00,-RA,-RA,0.00,WeatherDisplay:10.37,2014-02-15 06:10:00,
2014-02-15 00:20:00,19.9,15.6,30.12,West,265,1.0,2.0,83,0.00,-RA,-RA,0.00,WeatherDisplay:10.37,2014-02-15 06:20:00,
2014-02-15 00:25:00,20.1,15.5,30.13,West,265,1.0,2.0,82,0.00,-RA,-RA,0.00,WeatherDisplay:10.37,2014-02-15 06:25:00,
2014-02-15 00:30:00,20.0,15.4,30.13,West,265,1.0,2.0,82,0.00,-RA,-RA,0.00,WeatherDisplay:10.37,2014-02-15 06:30:00,
2014-02-15 00:40:00,20.2,15.6,30.12,West,265,0.0,1.0,82,0.00,-RA,-RA,0.00,WeatherDisplay:10.37,2014-02-15 06:40:00,
2014-02-15 00:45:00,20.4,15.8,30.12,West,265,0.0,1.0,82,0.00,-RA,-RA,0.00,WeatherDisplay:10.37,2014-02-15 06:45:00,
2014-02-15 00:50:00,20.6,16.0,30.12,West,265,1.0,1.0,82,0.00,-RA,-RA,0.00,WeatherDisplay:10.37,2014-02-15 06:50:00,
2014-02-15 01:00:00,20.8,15.9,30.11,West,265,1.0,3.0,81,0.00,-RA,-RA,0.00,WeatherDisplay:10.37,2014-02-15 07:00:00,
2014-02-15 01:10:00,20.9,16.0,30.12,West,265,1.0,2.0,81,0.00,-RA,-RA,0.00,WeatherDisplay:10.37,2014-02-15 07:10:00,
2014-02-15 01:15:00,20.8,15.9,30.11,West,265,1.0,3.0,81,0.00,-RA,-RA,0.00,WeatherDisplay:10.37,2014-02-15 07:15:00,
2014-02-15 01:20:00,20.8,15.8,30.11,West,265,1.0,2.0,81,0.00,-RA,-RA,0.00,WeatherDisplay:10.37,2014-02-15 07:20:00,
2014-02-15 01:25:00,20.8,15.9,30.11,West,265,1.0,3.0,81,0.00,-RA,-RA,0.00,WeatherDisplay:10.37,2014-02-15 07:25:00,
2014-02-15 01:30:00,20.8,15.9,30.11,West,264,1.0,3.0,81,0.00,-RA,-RA,0.00,WeatherDisplay:10.37,2014-02-15 07:30:00,
2014-02-15 01:40:00,20.6,15.4,30.11,West,264,1.0,2.0,80,0.00,-RA,-RA,0.00,WeatherDisplay:10.37,2014-02-15 07:40:00,
2014-02-15 01:45:00,20.5,15.6,30.11,West,264,2.0,3.0,81,0.00,-RA,-RA,0.00,WeatherDisplay:10.37,2014-02-15 07:45:00,
2014-02-15 01:50:00,20.4,15.5,30.11,West,263,1.0,3.0,81,0.00,-RA,-RA,0.00,WeatherDisplay:10.37,2014-02-15 07:50:00,
2014-02-15 01:55:00,20.5,15.6,30.11,West,261,2.0,3.0,81,0.00,-RA,-RA,0.00,WeatherDisplay:10.37,2014-02-15 07:55:00,
2014-02-15 02:00:00,20.6,15.7,30.11,WSW,257,1.0,3.0,81,0.00,-RA,-RA,0.00,WeatherDisplay:10.37,2014-02-15 08:00:00,
2014-02-15 02:10:00,20.2,15.0,30.10,WSW,254,1.0,2.0,80,0.00,-RA,-RA,0.00,WeatherDisplay:10.37,2014-02-15 08:10:00,
2014-02-15 02:15:00,19.8,14.7,30.10,WSW,254,1.0,2.0,80,0.00,-RA,-RA,0.00,WeatherDisplay:10.37,2014-02-15 08:15:00,
2014-02-15 02:20:00,19.3,14.1,30.10,WSW,254,1.0,2.0,80,0.00,-RA,-RA,0.00,WeatherDisplay:10.37,2014-02-15 08:20:00,
2014-02-15 02:25:00,18.8,13.9,30.10,WSW,254,2.0,3.0,81,0.00,-RA,-RA,0.00,WeatherDisplay:10.37,2014-02-15 08:25:00,
2014-02-15 02:30:00,18.6,14.0,30.10,WSW,252,2.0,4.0,82,0.00,-RA,-RA,0.00,WeatherDisplay:10.37,2014-02-15 08:30:00,
2014-02-15 02:40:00,19.6,15.2,30.10,SW,225,2.0,4.0,83,0.00,-RA,-RA,0.00,WeatherDisplay:10.37,2014-02-15 08:40:00,
2014-02-15 02:45:00,19.8,15.4,30.10,SW,219,3.0,5.0,83,0.00,-RA,-RA,0.00,WeatherDisplay:10.37,2014-02-15 08:45:00,
2014-02-15 02:50:00,20.1,15.7,30.10,SSW,204,2.0,5.0,83,0.00,-RA,-RA,0.00,WeatherDisplay:10.37,2014-02-15 08:50:00,
2014-02-15 03:00:00,20.2,15.6,30.10,SSW,193,3.0,6.0,82,0.00,-RA,-RA,0.00,WeatherDisplay:10.37,2014-02-15 09:00:00,
2014-02-15 03:10:00,20.2,15.5,30.10,SSW,193,2.0,3.0,82,0.00,-RA,-RA,0.00,WeatherDisplay:10.37,2014-02-15 09:10:00,
2014-02-15 03:15:00,20.3,15.6,30.10,SSW,193,2.0,3.0,82,0.00,-RA,-RA,0.00,WeatherDisplay:10.37,2014-02-15 09:15:00,
2014-02-15 03:20:00,20.4,15.7,30.10,SSW,193,2.0,3.0,82,0.00,-RA,-RA,0.00,WeatherDisplay:10.37,2014-02-15 09:20:00,
2014-02-15 03:30:00,20.4,15.5,30.10,SSW,193,1.0,2.0,81,0.00,-RA,-RA,0.00,WeatherDisplay:10.37,2014-02-15 09:30:00,
2014-02-15 03:40:00,20.3,15.4,30.10,SSW,193,2.0,3.0,81,0.00,-RA,-RA,0.00,WeatherDisplay:10.37,2014-02-15 09:40:00,
2014-02-15 03:45:00,20.2,15.3,30.10,SSW,193,2.0,3.0,81,0.00,-RA,-RA,0.00,WeatherDisplay:10.37,2014-02-15 09:45:00,
2014-02-15 03:50:00,20.1,15.2,30.10,SSW,193,3.0,5.0,81,0.00,-RA,-RA,0.00,WeatherDisplay:10.37,2014-02-15 09:50:00,
2014-02-15 03:55:00,20.3,15.6,30.09,SSW,193,3.0,6.0,82,0.00,-RA,-RA,0.00,WeatherDisplay:10.37,2014-02-15 09:55:00,
2014-02-15 04:00:00,20.3,15.6,30.09,SSW,193,3.0,5.0,82,0.00,-RA,-RA,0.00,WeatherDisplay:10.37,2014-02-15 10:00:00,
2014-02-15 04:10:00,19.9,15.3,30.07,SSW,193,3.0,5.0,82,0.00,-RA,-RA,0.00,WeatherDisplay:10.37,2014-02-15 10:10:00,
2014-02-15 04:15:00,19.5,14.9,30.07,SSW,193,2.0,4.0,82,0.00,-RA,-RA,0.00,WeatherDisplay:10.37,2014-02-15 10:15:00,
2014-02-15 04:20:00,18.9,14.3,30.06,SSW,193,2.0,3.0,82,0.00,-RA,-RA,0.00,WeatherDisplay:10.37,2014-02-15 10:20:00,
2014-02-15 04:25:00,17.9,13.4,30.06,SSW,193,2.0,3.0,82,0.00,-RA,-RA,0.00,WeatherDisplay:10.37,2014-02-15 10:25:00,
2014-02-15 04:30:00,17.1,12.6,30.06,SSW,193,2.0,3.0,82,0.00,-RA,-RA,0.00,WeatherDisplay:10.37,2014-02-15 10:30:00,
2014-02-15 04:35:00,16.8,12.6,30.07,SSW,193,3.0,4.0,83,0.00,-RA,-RA,0.00,WeatherDisplay:10.37,2014-02-15 10:35:00,
2014-02-15 04:40:00,17.1,13.1,30.07,SSW,193,2.0,3.0,84,0.00,-RA,-RA,0.00,WeatherDisplay:10.37,2014-02-15 10:40:00,
2014-02-15 04:45:00,17.4,13.4,30.06,SSW,193,3.0,4.0,84,0.00,-RA,-RA,0.00,WeatherDisplay:10.37,2014-02-15 10:45:00,
2014-02-15 04:50:00,17.1,13.1,30.06,SSW,193,3.0,5.0,84,0.00,-RA,-RA,0.00,WeatherDisplay:10.37,2014-02-15 10:50:00,
2014-02-15 04:55:00,17.4,13.7,30.06,South,189,3.0,5.0,85,0.00,-RA,-RA,0.00,WeatherDisplay:10.37,2014-02-15 10:55:00,
2014-02-15 05:00:00,18.0,14.5,30.06,South,184,3.0,5.0,86,0.00,-RA,-RA,0.00,WeatherDisplay:10.37,2014-02-15 11:00:00,
2014-02-15 05:05:00,18.6,15.1,30.05,South,179,3.0,6.0,86,0.00,-RA,-RA,0.00,WeatherDisplay:10.37,2014-02-15 11:05:00,
2014-02-15 05:10:00,19.0,15.5,30.06,South,170,6.0,8.0,86,0.00,-RA,-RA,0.00,WeatherDisplay:10.37,2014-02-15 11:10:00,
2014-02-15 05:15:00,19.3,15.8,30.06,SSE,164,5.0,7.0,86,0.00,-RA,-RA,0.00,WeatherDisplay:10.37,2014-02-15 11:15:00,
2014-02-15 05:20:00,19.5,15.7,30.06,SSE,166,3.0,6.0,85,0.00,-RA,-RA,0.00,WeatherDisplay:10.37,2014-02-15 11:20:00,
2014-02-15 05:25:00,19.8,16.3,30.05,SSE,165,5.0,7.0,86,0.00,-RA,-RA,0.00,WeatherDisplay:10.37,2014-02-15 11:25:00,
2014-02-15 05:30:00,20.2,16.4,30.06,SSE,168,5.0,7.0,85,0.00,-RA,-RA,0.00,WeatherDisplay:10.37,2014-02-15 11:30:00,
2014-02-15 05:40:00,20.9,16.8,30.05,South,175,5.0,8.0,84,0.00,-RA,-RA,0.00,WeatherDisplay:10.37,2014-02-15 11:40:00,
2014-02-15 05:45:00,21.1,16.7,30.05,South,180,5.0,8.0,83,0.00,-RA,-RA,0.00,WeatherDisplay:10.37,2014-02-15 11:45:00,
2014-02-15 05:50:00,21.1,16.7,30.06,South,184,5.0,7.0,83,0.00,-RA,-RA,0.00,WeatherDisplay:10.37,2014-02-15 11:50:00,
2014-02-15 05:55:00,21.2,16.8,30.06,South,182,5.0,7.0,83,0.00,-RA,-RA,0.00,WeatherDisplay:10.37,2014-02-15 11:55:00,
2014-02-15 06:00:00,21.3,16.9,30.04,South,182,6.0,7.0,83,0.00,-RA,-RA,0.00,WeatherDisplay:10.37,2014-02-15 12:00:00,
2014-02-15 06:10:00,21.5,17.1,30.05,South,186,6.0,9.0,83,0.00,-RA,-RA,0.00,WeatherDisplay:10.37,2014-02-15 12:10:00,
2014-02-15 06:15:00,21.6,17.2,30.05,South,179,6.0,10.0,83,0.00,-RA,-RA,0.00,WeatherDisplay:10.37,2014-02-15 12:15:00,
2014-02-15 06:20:00,21.7,17.0,30.04,South,175,6.0,9.0,82,0.00,-RA,-RA,0.00,WeatherDisplay:10.37,2014-02-15 12:20:00,
2014-02-15 06:25:00,21.8,17.1,30.05,SSE,167,6.0,9.0,82,0.00,-RA,-RA,0.00,WeatherDisplay:10.37,2014-02-15 12:25:00,
2014-02-15 06:30:00,21.9,17.3,30.04,SSE,167,6.0,9.0,82,0.00,-RA,-RA,0.00,WeatherDisplay:10.37,2014-02-15 12:30:00,
2014-02-15 06:35:00,21.8,16.9,30.04,South,169,5.0,9.0,81,0.00,-RA,-RA,0.00,WeatherDisplay:10.37,2014-02-15 12:35:00,
2014-02-15 06:40:00,21.6,16.7,30.04,SSE,167,5.0,7.0,81,0.00,-RA,-RA,0.00,WeatherDisplay:10.37,2014-02-15 12:40:00,
2014-02-15 06:45:00,21.6,16.6,30.03,SSE,166,6.0,8.0,81,0.00,-RA,-RA,0.00,WeatherDisplay:10.37,2014-02-15 12:45:00,
2014-02-15 06:50:00,21.7,16.7,30.04,South,171,6.0,10.0,81,0.00,-RA,-RA,0.00,WeatherDisplay:10.37,2014-02-15 12:50:00,
2014-02-15 06:55:00,21.9,16.9,30.04,South,170,6.0,8.0,81,0.00,-RA,-RA,0.00,WeatherDisplay:10.37,2014-02-15 12:55:00,
2014-02-15 07:00:00,22.0,17.0,30.04,South,172,7.0,10.0,81,0.00,-RA,-RA,0.00,WeatherDisplay:10.37,2014-02-15 13:00:00,
2014-02-15 07:05:00,22.0,16.7,30.03,South,172,6.0,10.0,80,0.00,-RA,-RA,0.00,WeatherDisplay:10.37,2014-02-15 13:05:00,
2014-02-15 07:10:00,21.9,16.6,30.04,SSE,165,6.0,10.0,80,0.00,-RA,-RA,0.00,WeatherDisplay:10.37,2014-02-15 13:10:00,
2014-02-15 07:20:00,21.5,16.6,30.04,SSE,166,7.0,12.0,81,0.00,-RA,-RA,0.00,WeatherDisplay:10.37,2014-02-15 13:20:00,
2014-02-15 07:25:00,21.4,16.4,30.02,SSE,163,7.0,12.0,81,0.00,-RA,-RA,0.00,WeatherDisplay:10.37,2014-02-15 13:25:00,
2014-02-15 07:30:00,21.1,16.2,30.03,SSE,165,6.0,12.0,81,0.00,-RA,-RA,0.00,WeatherDisplay:10.37,2014-02-15 13:30:00,
2014-02-15 07:35:00,21.0,16.3,30.03,SSE,168,6.0,10.0,82,0.00,-RA,-RA,0.00,WeatherDisplay:10.37,2014-02-15 13:35:00,
2014-02-15 07:40:00,21.0,16.3,30.03,South,173,7.0,12.0,82,0.00,-RA,-RA,0.00,WeatherDisplay:10.37,2014-02-15 13:40:00,
2014-02-15 07:50:00,21.3,16.9,30.00,SSE,167,9.0,13.0,83,0.00,-RA,-RA,0.00,WeatherDisplay:10.37,2014-02-15 13:50:00,
2014-02-15 07:55:00,21.4,17.0,30.00,SSE,168,10.0,14.0,83,0.00,-RA,-RA,0.00,WeatherDisplay:10.37,2014-02-15 13:55:00,
2014-02-15 08:00:00,21.5,17.1,30.00,South,170,8.0,14.0,83,0.00,-RA,-RA,0.00,WeatherDisplay:10.37,2014-02-15 14:00:00,
2014-02-15 08:05:00,21.9,17.5,30.00,South,169,9.0,13.0,83,0.00,-RA,-RA,0.00,WeatherDisplay:10.37,2014-02-15 14:05:00,
2014-02-15 08:10:00,22.3,17.6,30.01,South,169,8.0,12.0,82,0.00,-RA,-RA,0.00,WeatherDisplay:10.37,2014-02-15 14:10:00,
2014-02-15 08:15:00,22.8,17.8,30.00,South,175,8.0,13.0,81,0.00,-RA,-RA,0.00,WeatherDisplay:10.37,2014-02-15 14:15:00,
2014-02-15 08:20:00,23.3,18.3,30.00,South,179,7.0,13.0,81,0.00,-RA,-RA,0.00,WeatherDisplay:10.37,2014-02-15 14:20:00,
2014-02-15 08:25:00,23.8,18.2,30.00,South,181,10.0,15.0,79,0.00,-RA,-RA,0.00,WeatherDisplay:10.37,2014-02-15 14:25:00,
2014-02-15 08:30:00,24.2,18.3,30.01,South,189,8.0,16.0,78,0.00,-RA,-RA,0.00,WeatherDisplay:10.37,2014-02-15 14:30:00,
2014-02-15 08:35:00,24.4,18.2,30.01,SSW,192,13.0,18.0,77,0.00,-RA,-RA,0.00,WeatherDisplay:10.37,2014-02-15 14:35:00,
2014-02-15 08:40:00,24.5,18.3,30.01,South,191,10.0,18.0,77,0.00,-RA,-RA,0.00,WeatherDisplay:10.37,2014-02-15 14:40:00,
2014-02-15 08:45:00,24.6,18.4,30.00,South,186,9.0,16.0,77,0.00,-RA,-RA,0.00,WeatherDisplay:10.37,2014-02-15 14:45:00,
2014-02-15 08:50:00,24.7,18.5,30.00,South,185,9.0,14.0,77,0.00,-RA,-RA,0.00,WeatherDisplay:10.37,2014-02-15 14:50:00,
2014-02-15 08:55:00,24.8,18.6,30.00,South,180,9.0,14.0,77,0.00,-RA,-RA,0.00,WeatherDisplay:10.37,2014-02-15 14:55:00,
2014-02-15 09:00:00,24.8,18.6,30.00,South,178,8.0,18.0,77,0.00,-RA,-RA,0.00,WeatherDisplay:10.37,2014-02-15 15:00:00,
2014-02-15 09:10:00,25.1,18.6,30.00,South,179,8.0,12.0,76,0.00,-RA,-RA,0.00,WeatherDisplay:10.37,2014-02-15 15:10:00,
2014-02-15 09:15:00,25.2,18.7,30.00,South,180,8.0,13.0,76,0.00,-RA,-RA,0.00,WeatherDisplay:10.37,2014-02-15 15:15:00,
2014-02-15 09:20:00,25.3,18.8,30.00,South,182,8.0,12.0,76,0.00,-RA,-RA,0.00,WeatherDisplay:10.37,2014-02-15 15:20:00,
2014-02-15 09:25:00,25.4,18.8,29.99,South,176,8.0,12.0,76,0.00,-RA,-RA,0.00,WeatherDisplay:10.37,2014-02-15 15:25:00,
2014-02-15 09:30:00,25.5,19.0,30.00,South,173,8.0,13.0,76,0.00,-RA,-RA,0.00,WeatherDisplay:10.37,2014-02-15 15:30:00,
2014-02-15 09:35:00,25.6,18.8,29.99,South,178,7.0,12.0,75,0.00,-RA,-RA,0.00,WeatherDisplay:10.37,2014-02-15 15:35:00,
2014-02-15 09:40:00,25.8,18.9,29.99,South,172,7.0,10.0,75,0.00,-RA,-RA,0.00,WeatherDisplay:10.37,2014-02-15 15:40:00,
2014-02-15 09:45:00,25.9,19.0,29.99,South,172,8.0,12.0,75,0.00,-RA,-RA,0.00,WeatherDisplay:10.37,2014-02-15 15:45:00,
2014-02-15 09:50:00,26.0,19.2,29.98,SSE,167,7.0,12.0,75,0.00,-RA,-RA,0.00,WeatherDisplay:10.37,2014-02-15 15:50:00,
2014-02-15 09:55:00,26.2,19.4,29.97,SSE,164,8.0,13.0,75,0.00,-RA,-RA,0.00,WeatherDisplay:10.37,2014-02-15 15:55:00,
2014-02-15 10:00:00,26.5,19.3,29.97,SSE,163,6.0,13.0,74,0.00,-RA,-RA,0.00,WeatherDisplay:10.37,2014-02-15 16:00:00,
2014-02-15 10:05:00,26.7,19.5,29.98,SSE,160,7.0,12.0,74,0.00,-RA,-RA,0.00,WeatherDisplay:10.37,2014-02-15 16:05:00,
2014-02-15 10:10:00,26.7,19.6,29.97,SSE,161,6.0,10.0,74,0.00,-RA,-RA,0.00,WeatherDisplay:10.37,2014-02-15 16:10:00,
2014-02-15 10:15:00,26.9,19.4,29.98,South,169,8.0,12.0,73,0.00,-RA,-RA,0.00,WeatherDisplay:10.37,2014-02-15 16:15:00,
2014-02-15 10:20:00,27.0,19.5,30.00,South,172,5.0,9.0,73,0.00,-RA,-RA,0.00,WeatherDisplay:10.37,2014-02-15 16:20:00,
2014-02-15 10:25:00,27.1,19.6,30.00,SSE,167,5.0,8.0,73,0.00,-RA,-RA,0.00,WeatherDisplay:10.37,2014-02-15 16:25:00,
2014-02-15 10:30:00,27.1,19.9,29.99,South,173,5.0,8.0,74,0.00,-RA,-RA,0.00,WeatherDisplay:10.37,2014-02-15 16:30:00,
2014-02-15 10:35:00,27.3,20.1,29.99,South,177,5.0,10.0,74,0.00,-RA,-RA,0.00,WeatherDisplay:10.37,2014-02-15 16:35:00,
2014-02-15 10:40:00,27.4,19.8,29.99,South,180,6.0,12.0,73,0.00,-RA,-RA,0.00,WeatherDisplay:10.37,2014-02-15 16:40:00,
2014-02-15 10:45:00,27.5,19.9,29.97,South,179,7.0,12.0,73,0.00,-RA,-RA,0.00,WeatherDisplay:10.37,2014-02-15 16:45:00,
2014-02-15 10:50:00,27.6,20.4,29.96,South,173,7.0,11.0,74,0.00,-RA,-RA,0.00,WeatherDisplay:10.37,2014-02-15 16:50:00,
2014-02-15 10:55:00,27.7,20.1,29.96,SSE,167,7.0,12.0,73,0.00,-RA,-RA,0.00,WeatherDisplay:10.37,2014-02-15 16:55:00,
2014-02-15 11:00:00,27.8,20.2,29.96,SSE,168,6.0,12.0,73,0.00,-RA,-RA,0.00,WeatherDisplay:10.37,2014-02-15 17:00:00,
2014-02-15 11:05:00,27.8,20.2,29.96,SSE,167,9.0,14.0,73,0.00,-RA,-RA,0.00,WeatherDisplay:10.37,2014-02-15 17:05:00,
2014-02-15 11:10:00,27.9,20.3,29.97,South,171,5.0,10.0,73,0.00,-RA,-RA,0.00,WeatherDisplay:10.37,2014-02-15 17:10:00,
2014-02-15 11:15:00,28.1,20.5,29.97,SSE,164,6.0,12.0,73,0.00,-RA,-RA,0.00,WeatherDisplay:10.37,2014-02-15 17:15:00,
2014-02-15 11:20:00,28.2,20.6,29.96,SSE,164,7.0,12.0,73,0.00,-RA,-RA,0.00,WeatherDisplay:10.37,2014-02-15 17:20:00,
2014-02-15 11:25:00,28.2,20.6,29.97,SSE,167,5.0,10.0,73,0.00,-RA,-RA,0.00,WeatherDisplay:10.37,2014-02-15 17:25:00,
2014-02-15 11:30:00,28.3,20.8,29.97,South,169,6.0,9.0,73,0.00,-RA,-RA,0.00,WeatherDisplay:10.37,2014-02-15 17:30:00,
2014-02-15 11:40:00,28.8,20.9,29.97,South,186,6.0,8.0,72,0.00,-RA,-RA,0.00,WeatherDisplay:10.37,2014-02-15 17:40:00,
2014-02-15 11:45:00,29.2,21.3,29.97,SSW,192,5.0,8.0,72,0.00,-RA,-RA,0.00,WeatherDisplay:10.37,2014-02-15 17:45:00,
2014-02-15 11:50:00,29.5,21.6,29.98,SSW,200,5.0,7.0,72,0.00,-RA,-RA,0.00,WeatherDisplay:10.37,2014-02-15 17:50:00,
2014-02-15 11:55:00,29.9,21.7,29.98,SSW,204,6.0,7.0,71,0.00,-RA,-RA,0.00,WeatherDisplay:10.37,2014-02-15 17:55:00,
2014-02-15 12:00:00,30.4,22.1,29.98,SSW,200,6.0,9.0,71,0.00,-RA,-RA,0.00,WeatherDisplay:10.37,2014-02-15 18:00:00,
2014-02-15 12:10:00,30.4,21.8,29.97,SSW,206,7.0,12.0,70,0.00,-RA,-RA,0.00,WeatherDisplay:10.37,2014-02-15 18:10:00,
2014-02-15 12:15:00,30.5,22.2,29.96,SSW,200,5.0,12.0,71,0.00,-RA,-RA,0.00,WeatherDisplay:10.37,2014-02-15 18:15:00,
2014-02-15 12:20:00,30.6,22.3,29.98,SSW,194,3.0,7.0,71,0.00,-RA,-RA,0.00,WeatherDisplay:10.37,2014-02-15 18:20:00,
2014-02-15 12:25:00,30.7,22.1,29.98,SSW,205,5.0,8.0,70,0.00,-RA,-RA,0.00,WeatherDisplay:10.37,2014-02-15 18:25:00,
2014-02-15 12:30:00,30.9,22.2,29.97,SW,217,5.0,6.0,70,0.00,-RA,-RA,0.00,WeatherDisplay:10.37,2014-02-15 18:30:00,
2014-02-15 12:40:00,32.0,23.0,29.96,South,189,5.0,7.0,69,0.00,-RA,-RA,0.00,WeatherDisplay:10.37,2014-02-15 18:40:00,
2014-02-15 12:45:00,32.4,23.4,29.96,SSW,193,5.0,7.0,69,0.00,-RA,-RA,0.00,WeatherDisplay:10.37,2014-02-15 18:45:00,
2014-02-15 12:50:00,33.1,23.7,29.96,SSW,202,6.0,9.0,68,0.00,-RA,-RA,0.00,WeatherDisplay:10.37,2014-02-15 18:50:00,
2014-02-15 12:55:00,33.3,23.8,29.94,SSW,208,6.0,7.0,68,0.00,-RA,-RA,0.00,WeatherDisplay:10.37,2014-02-15 18:55:00,
2014-02-15 13:00:00,33.4,23.6,29.94,SSW,200,6.0,10.0,67,0.00,-RA,-RA,0.00,WeatherDisplay:10.37,2014-02-15 19:00:00,
2014-02-15 13:10:00,34.2,24.8,29.93,SSW,203,6.0,10.0,68,0.00,-RA,-RA,0.00,WeatherDisplay:10.37,2014-02-15 19:10:00,
2014-02-15 13:15:00,34.5,24.3,29.94,SSW,210,7.0,12.0,66,0.00,-RA,-RA,0.00,WeatherDisplay:10.37,2014-02-15 19:15:00,
2014-02-15 13:20:00,34.3,24.1,29.92,SSW,204,9.0,13.0,66,0.00,-RA,-RA,0.00,WeatherDisplay:10.37,2014-02-15 19:20:00,
2014-02-15 13:25:00,34.3,24.8,29.92,SSW,194,7.0,13.0,68,0.00,-RA,-RA,0.00,WeatherDisplay:10.37,2014-02-15 19:25:00,
2014-02-15 13:30:00,34.7,25.2,29.91,SSW,195,7.0,10.0,68,0.00,-RA,-RA,0.00,WeatherDisplay:10.37,2014-02-15 19:30:00,
2014-02-15 13:40:00,35.4,25.5,29.88,South,190,10.0,16.0,67,0.00,-RA,-RA,0.00,WeatherDisplay:10.37,2014-02-15 19:40:00,
2014-02-15 13:45:00,35.4,25.9,29.90,South,189,7.0,13.0,68,0.00,-RA,-RA,0.00,WeatherDisplay:10.37,2014-02-15 19:45:00,
2014-02-15 13:50:00,36.2,25.9,29.91,SSW,203,7.0,12.0,66,0.00,-RA,-RA,0.00,WeatherDisplay:10.37,2014-02-15 19:50:00,
2014-02-15 13:55:00,36.6,25.9,29.91,SW,214,8.0,13.0,65,0.00,-RA,-RA,0.00,WeatherDisplay:10.37,2014-02-15 19:55:00,
2014-02-15 14:00:00,36.4,25.8,29.91,SSW,212,7.0,13.0,65,0.00,-RA,-RA,0.00,WeatherDisplay:10.37,2014-02-15 20:00:00,
2014-02-15 14:10:00,37.5,26.8,29.91,SW,219,8.0,12.0,65,0.00,-RA,-RA,0.00,WeatherDisplay:10.37,2014-02-15 20:10:00,
2014-02-15 14:15:00,38.4,26.9,29.92,SW,221,6.0,12.0,63,0.00,-RA,-RA,0.00,WeatherDisplay:10.37,2014-02-15 20:15:00,
2014-02-15 14:20:00,38.5,26.6,29.92,SW,224,7.0,12.0,62,0.00,-RA,-RA,0.00,WeatherDisplay:10.37,2014-02-15 20:20:00,
2014-02-15 14:30:00,38.6,27.1,29.92,SW,216,6.0,10.0,63,0.00,-RA,-RA,0.00,WeatherDisplay:10.37,2014-02-15 20:30:00,
2014-02-15 14:40:00,39.1,27.1,29.92,SW,214,5.0,8.0,62,0.00,-RA,-RA,0.00,WeatherDisplay:10.37,2014-02-15 20:40:00,
2014-02-15 14:45:00,39.2,27.3,29.92,SW,221,3.0,6.0,62,0.00,-RA,-RA,0.00,WeatherDisplay:10.37,2014-02-15 20:45:00,
2014-02-15 14:50:00,39.5,27.6,29.92,WSW,240,2.0,7.0,62,0.00,-RA,-RA,0.00,WeatherDisplay:10.37,2014-02-15 20:50:00,
2014-02-15 15:00:00,40.1,28.1,29.92,WSW,254,3.0,12.0,62,0.00,-RA,-RA,0.00,WeatherDisplay:10.37,2014-02-15 21:00:00,
2014-02-15 15:10:00,40.0,28.0,29.92,WSW,255,3.0,10.0,62,0.00,-RA,-RA,0.00,WeatherDisplay:10.37,2014-02-15 21:10:00,
2014-02-15 15:15:00,40.4,28.4,29.92,WSW,249,6.0,9.0,62,0.00,-RA,-RA,0.00,WeatherDisplay:10.37,2014-02-15 21:15:00,
2014-02-15 15:20:00,41.3,28.8,29.92,SW,233,5.0,8.0,61,0.00,-RA,-RA,0.00,WeatherDisplay:10.37,2014-02-15 21:20:00,
2014-02-15 15:30:00,42.2,28.9,29.92,WSW,239,5.0,8.0,59,0.00,-RA,-RA,0.00,WeatherDisplay:10.37,2014-02-15 21:30:00,
2014-02-15 15:40:00,42.4,29.0,29.92,WSW,239,5.0,10.0,59,0.00,-RA,-RA,0.00,WeatherDisplay:10.37,2014-02-15 21:40:00,
2014-02-15 15:45:00,42.6,29.2,29.92,SW,233,6.0,12.0,59,0.00,-RA,-RA,0.00,WeatherDisplay:10.37,2014-02-15 21:45:00,
2014-02-15 15:50:00,42.4,29.0,29.92,SW,227,5.0,12.0,59,0.00,-RA,-RA,0.00,WeatherDisplay:10.37,2014-02-15 21:50:00,
2014-02-15 15:55:00,42.7,28.9,29.92,SW,227,7.0,8.0,58,0.00,-RA,-RA,0.00,WeatherDisplay:10.37,2014-02-15 21:55:00,
2014-02-15 16:00:00,42.8,29.4,29.92,SW,224,5.0,12.0,59,0.00,-RA,-RA,0.00,WeatherDisplay:10.37,2014-02-15 22:00:00,
2014-02-15 16:10:00,43.3,29.5,29.93,WSW,243,5.0,9.0,58,0.00,-RA,-RA,0.00,WeatherDisplay:10.37,2014-02-15 22:10:00,
2014-02-15 16:15:00,43.3,29.5,29.93,WSW,242,5.0,7.0,58,0.00,-RA,-RA,0.00,WeatherDisplay:10.37,2014-02-15 22:15:00,
2014-02-15 16:20:00,43.4,29.6,29.93,WSW,237,6.0,10.0,58,0.00,-RA,-RA,0.00,WeatherDisplay:10.37,2014-02-15 22:20:00,
2014-02-15 16:30:00,43.5,29.7,29.93,WSW,246,3.0,6.0,58,0.00,-RA,-RA,0.00,WeatherDisplay:10.37,2014-02-15 22:30:00,
2014-02-15 16:40:00,43.5,29.7,29.94,West,267,2.0,4.0,58,0.00,-RA,-RA,0.00,WeatherDisplay:10.37,2014-02-15 22:40:00,
2014-02-15 16:45:00,43.6,29.8,29.94,West,266,3.0,4.0,58,0.00,-RA,-RA,0.00,WeatherDisplay:10.37,2014-02-15 22:45:00,
2014-02-15 16:50:00,43.6,30.2,29.94,WSW,256,3.0,6.0,59,0.00,-RA,-RA,0.00,WeatherDisplay:10.37,2014-02-15 22:50:00,
2014-02-15 16:55:00,43.5,30.1,29.94,WSW,254,2.0,6.0,59,0.00,-RA,-RA,0.00,WeatherDisplay:10.37,2014-02-15 22:55:00,
2014-02-15 17:00:00,43.4,30.0,29.94,WSW,256,2.0,7.0,59,0.00,-RA,-RA,0.00,WeatherDisplay:10.37,2014-02-15 23:00:00,
2014-02-15 17:10:00,43.4,30.0,29.95,WSW,256,2.0,6.0,59,0.00,-RA,-RA,0.00,WeatherDisplay:10.37,2014-02-15 23:10:00,
2014-02-15 17:15:00,43.4,30.0,29.94,WSW,247,3.0,5.0,59,0.00,-RA,-RA,0.00,WeatherDisplay:10.37,2014-02-15 23:15:00,
2014-02-15 17:20:00,43.0,30.1,29.94,SW,230,3.0,5.0,60,0.00,-RA,-RA,0.00,WeatherDisplay:10.37,2014-02-15 23:20:00,
2014-02-15 17:25:00,42.7,29.8,29.95,SW,225,3.0,6.0,60,0.00,-RA,-RA,0.00,WeatherDisplay:10.37,2014-02-15 23:25:00,
2014-02-15 17:30:00,42.4,29.9,29.95,SW,228,5.0,6.0,61,0.00,-RA,-RA,0.00,WeatherDisplay:10.37,2014-02-15 23:30:00,
2014-02-15 17:40:00,41.9,29.4,29.95,WSW,237,3.0,6.0,61,0.00,-RA,-RA,0.00,WeatherDisplay:10.37,2014-02-15 23:40:00,
2014-02-15 17:45:00,41.7,29.6,29.96,WSW,237,2.0,5.0,62,0.00,-RA,-RA,0.00,WeatherDisplay:10.37,2014-02-15 23:45:00,
2014-02-15 17:50:00,41.3,29.2,29.95,SW,234,3.0,5.0,62,0.00,-RA,-RA,0.00,WeatherDisplay:10.37,2014-02-15 23:50:00,
2014-02-15 17:55:00,41.0,29.3,29.96,SW,229,5.0,6.0,63,0.00,-RA,-RA,0.00,WeatherDisplay:10.37,2014-02-15 23:55:00,
2014-02-15 18:00:00,41.0,29.8,29.95,SW,226,3.0,7.0,64,0.00,-RA,-RA,0.00,WeatherDisplay:10.37,2014-02-16 00:00:00,
2014-02-15 18:10:00,41.1,29.8,29.96,SW,222,5.0,7.0,64,0.00,-RA,-RA,0.00,WeatherDisplay:10.37,2014-02-16 00:10:00,
2014-02-15 18:15:00,41.0,29.7,29.96,SW,221,6.0,7.0,64,0.00,-RA,-RA,0.00,WeatherDisplay:10.37,2014-02-16 00:15:00,
2014-02-15 18:20:00,40.9,29.6,29.96,SW,222,3.0,8.0,64,0.00,-RA,-RA,0.00,WeatherDisplay:10.37,2014-02-16 00:20:00,
2014-02-15 18:30:00,40.6,29.7,29.96,SW,232,3.0,5.0,65,0.00,-RA,-RA,0.00,WeatherDisplay:10.37,2014-02-16 00:30:00,
2014-02-15 18:40:00,40.6,29.7,29.97,SW,222,6.0,7.0,65,0.00,-RA,-RA,0.00,WeatherDisplay:10.37,2014-02-16 00:40:00,
2014-02-15 18:45:00,40.6,30.1,29.97,SW,221,6.0,7.0,66,0.00,-RA,-RA,0.00,WeatherDisplay:10.37,2014-02-16 00:45:00,
2014-02-15 18:50:00,40.6,30.1,29.97,SW,219,6.0,7.0,66,0.00,-RA,-RA,0.00,WeatherDisplay:10.37,2014-02-16 00:50:00,
2014-02-15 19:00:00,40.0,29.5,29.96,SW,220,2.0,4.0,66,0.00,-RA,-RA,0.00,WeatherDisplay:10.37,2014-02-16 01:00:00,
2014-02-15 19:10:00,39.6,29.9,29.97,SW,220,3.0,6.0,68,0.00,-RA,-RA,0.00,WeatherDisplay:10.37,2014-02-16 01:10:00,
2014-02-15 19:15:00,39.4,29.7,29.96,SW,218,5.0,7.0,68,0.00,-RA,-RA,0.00,WeatherDisplay:10.37,2014-02-16 01:15:00,
2014-02-15 19:20:00,39.8,30.5,29.97,SW,219,5.0,8.0,69,0.00,-RA,-RA,0.00,WeatherDisplay:10.37,2014-02-16 01:20:00,
2014-02-15 19:30:00,40.3,30.6,29.97,SW,217,6.0,9.0,68,0.00,-RA,-RA,0.00,WeatherDisplay:10.37,2014-02-16 01:30:00,
2014-02-15 19:40:00,40.5,30.7,29.98,SW,228,5.0,8.0,68,0.00,-RA,-RA,0.00,WeatherDisplay:10.37,2014-02-16 01:40:00,
2014-02-15 19:45:00,40.7,31.0,29.98,WSW,239,5.0,8.0,68,0.00,-RA,-RA,0.00,WeatherDisplay:10.37,2014-02-16 01:45:00,
2014-02-15 19:50:00,40.9,30.7,29.98,WSW,247,5.0,9.0,67,0.00,-RA,-RA,0.00,WeatherDisplay:10.37,2014-02-16 01:50:00,
2014-02-15 20:00:00,41.0,31.2,29.99,West,265,3.0,7.0,68,0.00,-RA,-RA,0.00,WeatherDisplay:10.37,2014-02-16 02:00:00,
2014-02-15 20:10:00,41.5,31.7,29.99,West,269,5.0,8.0,68,0.00,-RA,-RA,0.00,WeatherDisplay:10.37,2014-02-16 02:10:00,
2014-02-15 20:15:00,41.8,32.0,30.00,West,266,6.0,9.0,68,0.00,-RA,-RA,0.00,WeatherDisplay:10.37,2014-02-16 02:15:00,
2014-02-15 20:20:00,42.1,31.9,30.00,West,273,5.0,7.0,67,0.00,-RA,-RA,0.00,WeatherDisplay:10.37,2014-02-16 02:20:00,
2014-02-15 20:25:00,42.0,31.9,30.00,West,281,5.0,6.0,67,0.00,-RA,-RA,0.00,WeatherDisplay:10.37,2014-02-16 02:25:00,
2014-02-15 20:30:00,41.8,31.6,30.01,WNW,283,5.0,7.0,67,0.00,-RA,-RA,0.00,WeatherDisplay:10.37,2014-02-16 02:30:00,
2014-02-15 20:40:00,41.5,31.3,30.01,WNW,284,7.0,10.0,67,0.00,-RA,-RA,0.00,WeatherDisplay:10.37,2014-02-16 02:40:00,
2014-02-15 20:45:00,42.3,30.9,30.02,WNW,287,6.0,9.0,64,0.00,-RA,-RA,0.00,WeatherDisplay:10.37,2014-02-16 02:45:00,
2014-02-15 20:50:00,42.1,30.8,30.02,WNW,292,5.0,8.0,64,0.00,-RA,-RA,0.00,WeatherDisplay:10.37,2014-02-16 02:50:00,
2014-02-15 20:55:00,41.7,30.8,30.03,WNW,297,5.0,9.0,65,0.00,-RA,-RA,0.00,WeatherDisplay:10.37,2014-02-16 02:55:00,
2014-02-15 21:00:00,42.0,30.7,30.03,WNW,298,7.0,9.0,64,0.00,-RA,-RA,0.00,WeatherDisplay:10.37,2014-02-16 03:00:00,
2014-02-15 21:10:00,42.5,30.8,30.04,WNW,300,10.0,13.0,63,0.00,-RA,-RA,0.00,WeatherDisplay:10.37,2014-02-16 03:10:00,
2014-02-15 21:15:00,42.9,30.4,30.04,NW,305,8.0,13.0,61,0.00,-RA,-RA,0.00,WeatherDisplay:10.37,2014-02-16 03:15:00,
2014-02-15 21:20:00,42.6,30.0,30.04,NW,305,7.0,10.0,61,0.00,-RA,-RA,0.00,WeatherDisplay:10.37,2014-02-16 03:20:00,
2014-02-15 21:30:00,42.1,29.6,30.05,NW,304,6.0,9.0,61,0.00,-RA,-RA,0.00,WeatherDisplay:10.37,2014-02-16 03:30:00,
2014-02-15 21:40:00,42.0,29.5,30.05,WNW,300,7.0,10.0,61,0.00,-RA,-RA,0.00,WeatherDisplay:10.37,2014-02-16 03:40:00,
2014-02-15 21:45:00,41.8,29.3,30.05,WNW,300,6.0,8.0,61,0.00,-RA,-RA,0.00,WeatherDisplay:10.37,2014-02-16 03:45:00,
2014-02-15 21:50:00,41.6,29.1,30.05,WNW,302,6.0,8.0,61,0.00,-RA,-RA,0.00,WeatherDisplay:10.37,2014-02-16 03:50:00,
2014-02-15 21:55:00,41.5,29.4,30.05,NW,310,6.0,8.0,62,0.00,-RA,-RA,0.00,WeatherDisplay:10.37,2014-02-16 03:55:00,
2014-02-15 22:00:00,41.4,29.3,30.06,NW,318,7.0,9.0,62,0.00,-RA,-RA,0.00,WeatherDisplay:10.37,2014-02-16 04:00:00,
2014-02-15 22:10:00,40.8,29.2,30.06,NW,310,3.0,8.0,63,0.00,-RA,-RA,0.00,WeatherDisplay:10.37,2014-02-16 04:10:00,
2014-02-15 22:15:00,40.3,28.7,30.07,WNW,302,5.0,6.0,63,0.00,-RA,-RA,0.00,WeatherDisplay:10.37,2014-02-16 04:15:00,
2014-02-15 22:20:00,40.0,28.8,30.07,WNW,299,3.0,5.0,64,0.00,-RA,-RA,0.00,WeatherDisplay:10.37,2014-02-16 04:20:00,
2014-02-15 22:25:00,39.7,28.9,30.07,WNW,299,3.0,4.0,65,0.00,-RA,-RA,0.00,WeatherDisplay:10.37,2014-02-16 04:25:00,
2014-02-15 22:30:00,39.5,28.7,30.07,WNW,300,2.0,5.0,65,0.00,-RA,-RA,0.00,WeatherDisplay:10.37,2014-02-16 04:30:00,
2014-02-15 22:40:00,39.2,28.4,30.07,WNW,292,3.0,7.0,65,0.00,-RA,-RA,0.00,WeatherDisplay:10.37,2014-02-16 04:40:00,
2014-02-15 22:45:00,39.1,28.7,30.07,WNW,299,5.0,6.0,66,0.00,-RA,-RA,0.00,WeatherDisplay:10.37,2014-02-16 04:45:00,
2014-02-15 22:50:00,38.9,28.5,30.08,WNW,298,5.0,6.0,66,0.00,-RA,-RA,0.00,WeatherDisplay:10.37,2014-02-16 04:50:00,
2014-02-15 22:55:00,38.6,28.2,30.08,WNW,301,2.0,6.0,66,0.00,-RA,-RA,0.00,WeatherDisplay:10.37,2014-02-16 04:55:00,
2014-02-15 23:00:00,38.5,28.1,30.08,NW,310,5.0,6.0,66,0.00,-RA,-RA,0.00,WeatherDisplay:10.37,2014-02-16 05:00:00,
2014-02-15 23:05:00,38.3,27.9,30.08,NW,310,3.0,7.0,66,0.00,-RA,-RA,0.00,WeatherDisplay:10.37,2014-02-16 05:05:00,
2014-02-15 23:10:00,38.1,28.1,30.08,WNW,303,3.0,6.0,67,0.00,-RA,-RA,0.00,WeatherDisplay:10.37,2014-02-16 05:10:00,
2014-02-15 23:15:00,37.8,27.8,30.08,WNW,300,3.0,6.0,67,0.00,-RA,-RA,0.00,WeatherDisplay:10.37,2014-02-16 05:15:00,
2014-02-15 23:20:00,37.7,28.0,30.08,WNW,301,3.0,6.0,68,0.00,-RA,-RA,0.00,WeatherDisplay:10.37,2014-02-16 05:20:00,
2014-02-15 23:25:00,37.6,28.0,30.08,NW,307,3.0,5.0,68,0.00,-RA,-RA,0.00,WeatherDisplay:10.37,2014-02-16 05:25:00,
2014-02-15 23:30:00,37.4,27.8,30.08,NW,315,5.0,7.0,68,0.00,-RA,-RA,0.00,WeatherDisplay:10.37,2014-02-16 05:30:00,
2014-02-15 23:40:00,37.6,28.0,30.08,NW,320,6.0,7.0,68,0.00,-RA,-RA,0.00,WeatherDisplay:10.37,2014-02-16 05:40:00,
2014-02-15 23:45:00,37.7,27.7,30.08,NW,320,6.0,8.0,67,0.00,-RA,-RA,0.00,WeatherDisplay:10.37,2014-02-16 05:45:00,
2014-02-15 23:50:00,37.5,27.5,30.08,NW,321,6.0,7.0,67,0.00,-RA,-RA,0.00,WeatherDisplay:10.37,2014-02-16 05:50:00,
2014-02-15 23:55:00,37.4,27.8,30.07,NW,324,7.0,9.0,68,0.00,-RA,-RA,0.00,WeatherDisplay:10.37,2014-02-16 05:55:00,